HARMALA Weather Reports


Display with metric or nautical units.
time (UTC)temp
F
wind
direction
speed
MPH
gust
MPH
rain 1hr
in
rain 24hr
in
rain mn
in
humidity
%
barometer
mb
20260904122447 60 0.0 0.0 0.00 0.24 0.22 62 997.6
20260904120447 60 0.0 0.0 0.00 0.24 0.22 63 997.7
20260904114447 59 0.0 0.0 0.00 0.24 0.22 65 997.9
20260904112446 60 0.0 0.0 0.00 0.24 0.22 64 998.0
20260904110447 59 0.0 0.0 0.00 0.24 0.22 71 998.1
20260904104446 61 0.0 0.0 0.00 0.24 0.22 63 998.2
20260904102116 59 0.0 0.0 0.00 0.24 0.22 59 998.3
20260904100446 58 0.0 0.0 0.00 0.24 0.22 70 998.3
20260904092447 53 0.0 0.0 0.07 0.24 0.22 93 998.8
20260904090447 52 0.0 0.0 0.07 0.24 0.22 95 998.8
20260904084447 51 0.0 0.0 0.13 0.17 0.15 97 998.8
20260904082116 50 0.0 0.0 0.13 0.17 0.15 98 999.0
20260904074447 51 0.0 0.0 0.00 0.05 0.03 92 999.7
20260904072446 53 0.0 0.0 0.00 0.05 0.03 96 999.5
20260904070116 54 0.0 0.0 0.00 0.05 0.03 94 999.4
20260904064447 54 0.0 0.0 0.00 0.05 0.03 93 999.3
20260904062445 54 0.0 0.0 0.00 0.05 0.03 95 999.2
20260904054115 51 0.0 0.0 0.02 0.04 0.02 99 999.3
20260904052444 50 0.0 0.0 0.02 0.04 0.02 99 999.4
20260904050445 50 0.0 0.0 0.02 0.04 0.02 99 999.7
20260904044444 49 0.0 0.0 0.00 0.02 0.00 99 1000.1
20260904042445 49 0.0 0.0 0.00 0.02 0.00 99 1000.3
20260904040445 49 0.0 0.0 0.00 0.02 0.00 100 1000.4
20260904034444 48 0.0 0.0 0.00 0.02 0.00 100 1000.6
20260904030447 46 0.0 0.0 0.00 0.02 0.00 100 1000.9
20260904024445 46 0.0 0.0 0.00 0.02 0.00 100 1001.1
20260904022444 46 0.0 0.0 0.00 0.02 0.00 100 1001.1
20260904020445 46 0.0 0.0 0.00 0.02 0.00 100 1001.3
20260904014446 45 0.0 0.0 0.00 0.02 0.00 99 1001.3
20260904012445 45 0.0 0.0 0.00 0.02 0.00 99 1001.4
20260904010446 45 0.0 0.0 0.00 0.02 0.00 99 1001.6
20260904004446 46 0.0 0.0 0.00 0.02 0.00 99 1001.8
20260904002446 46 0.0 0.0 0.00 0.02 0.00 99 1002.0
20260904000447 46 0.0 0.0 0.00 0.02 0.00 99 1002.1
20260903234444 46 0.0 0.0 0.00 0.02 0.00 99 1002.3
20260903232446 47 0.0 0.0 0.00 0.02 0.00 99 1002.2
20260903230445 47 0.0 0.0 0.00 0.02 0.00 97 1002.6
20260903224445 48 0.0 0.0 0.00 0.02 0.00 97 1002.5
20260903222445 48 0.0 0.0 0.00 0.02 0.00 98 1002.6
20260903220444 47 0.0 0.0 0.00 0.02 0.00 99 1002.7
20260903214444 47 0.0 0.0 0.00 0.02 0.00 98 1002.8
20260903212445 47 0.0 0.0 0.00 0.02 0.00 98 1002.9
20260903204446 48 0.0 0.0 0.00 0.02 0.02 97 1003.0
20260903200445 48 0.0 0.0 0.00 0.02 0.02 97 1003.1
20260903194444 49 0.0 0.0 0.00 0.02 0.02 96 1003.1
20260903192443 50 0.0 0.0 0.00 0.02 0.02 93 1003.3
20260903190114 51 0.0 0.0 0.00 0.02 0.02 89 1003.3
20260903184444 53 0.0 0.0 0.00 0.02 0.02 85 1003.3
20260903182444 54 0.0 0.0 0.00 0.02 0.02 82 1003.3
20260903180444 55 0.0 0.0 0.00 0.02 0.02 81 1003.3
20260903174442 56 0.0 0.0 0.00 0.02 0.02 84 1003.1
20260903172443 57 0.0 0.0 0.00 0.02 0.02 73 1002.9
20260903170443 57 0.0 0.0 0.00 0.02 0.02 89 1002.9
20260903164442 58 0.0 0.0 0.02 0.02 0.02 89 1002.7
20260903162444 58 0.0 0.0 0.02 0.02 0.02 87 1002.7
20260903160113 58 0.0 0.0 0.00 0.01 0.01 81 1002.6
20260903154441 58 0.0 0.0 0.00 0.01 0.01 81 1002.7
20260903152442 60 0.0 0.0 0.00 0.01 0.01 66 1002.7
20260903150443 61 0.0 0.0 0.00 0.01 0.01 60 1002.8
20260903144443 62 0.0 0.0 0.00 0.01 0.01 56 1002.6
20260903142443 63 0.0 0.0 0.00 0.01 0.01 59 1002.5
20260903140442 63 0.0 0.0 0.00 0.01 0.01 61 1002.5
20260903134442 63 0.0 0.0 0.00 0.01 0.01 67 1002.6
20260903132443 61 0.0 0.0 0.00 0.01 0.01 70 1002.8
20260903130442 60 0.0 0.0 0.00 0.01 0.01 70 1003.0
20260903124443 60 0.0 0.0 0.00 0.01 0.01 65 1003.2